This is the latest recevied weather packets stored in our database for station/object DG7FDL-7. If no packets are shown the sender has not sent any weather packets the latest 10 day(s).
| Time | Temp. | Humidity | Pressure | Rain* | Wind** | Luminosity | Snow |
|---|---|---|---|---|---|---|---|
| 1777552490 | 20° C | 26% | 1029.8 hPa | - | - | - | - |
| 1777551588 | 20° C | 26% | 1029.9 hPa | - | - | - | - |
| 1777549785 | 18.89° C | 26% | 1030.2 hPa | - | - | - | - |
| 1777548885 | 18.33° C | 27% | 1030.2 hPa | - | - | - | - |
| 1777547085 | 17.78° C | 26% | 1030.5 hPa | - | - | - | - |
| 1777546185 | 17.78° C | 27% | 1030.7 hPa | - | - | - | - |
| 1777544385 | 17.78° C | 27% | 1030.8 hPa | - | - | - | - |
| 1777543485 | 17.78° C | 27% | 1030.9 hPa | - | - | - | - |
| 1777542585 | 17.78° C | 27% | 1031 hPa | - | - | - | - |
| 1777541685 | 18.33° C | 28% | 1031.1 hPa | - | - | - | - |
| 1777540785 | 18.33° C | 28% | 1031.3 hPa | - | - | - | - |
| 1777539885 | 18.33° C | 28% | 1031.3 hPa | - | - | - | - |
| 1777538988 | 18.33° C | 28% | 1031.4 hPa | - | - | - | - |
| 1777538084 | 18.89° C | 29% | 1031.5 hPa | - | - | - | - |
| 1777537196 | 19.44° C | 28% | 1031.7 hPa | - | - | - | - |
| 1777536288 | 20° C | 27% | 1031.9 hPa | - | - | - | - |
| 1777535378 | 18.89° C | 29% | 1031.8 hPa | - | - | - | - |
| 1777534489 | 17.78° C | 29% | 1031.9 hPa | - | - | - | - |
| 1777533580 | 17.78° C | 30% | 1031.9 hPa | - | - | - | - |
| 1777532678 | 16.67° C | 32% | 1032 hPa | - | - | - | - |
| 1777531792 | 16.67° C | 32% | 1032 hPa | - | - | - | - |
| 1777530878 | 16.67° C | 31% | 1032 hPa | - | - | - | - |
| 1777529977 | 17.22° C | 32% | 1032 hPa | - | - | - | - |
| 1777529077 | 17.22° C | 32% | 1032 hPa | - | - | - | - |
| 1777528177 | 16.67° C | 32% | 1031.8 hPa | - | - | - | - |
* Rain since midnight (hover to see other rain measurements)
** Current wind speed in m/s (hover to see current wind gust speed)